Time,TemperatureF,DewpointF,PressureIn,WindDirection,WindDirectionDegrees,WindSpeedMPH,WindSpeedGustMPH,Humidity,HourlyPrecipIn,Conditions,Clouds,dailyrainin,SoftwareType,DateUTC
2013-01-31 06:01:00,33.0,32.0,30.24,SE,138,0.0,1.0,95,0.00,,,0.00,,2013-01-31 14:01:00,
2013-01-31 06:21:00,33.0,32.0,30.24,SE,138,0.0,1.0,95,0.00,,,0.00,,2013-01-31 14:21:00,
2013-01-31 06:31:00,33.0,32.0,30.25,SE,138,0.0,1.0,95,0.00,,,0.00,,2013-01-31 14:31:00,
2013-01-31 06:41:00,33.0,32.0,30.25,SE,138,0.0,1.0,95,0.00,,,0.00,,2013-01-31 14:41:00,
2013-01-31 06:52:00,32.0,31.0,30.25,SE,138,0.0,0.0,95,0.00,,,0.00,,2013-01-31 14:52:00,
2013-01-31 07:02:00,32.0,31.0,30.25,SE,138,0.0,0.0,95,0.00,,,0.00,,2013-01-31 15:02:00,
2013-01-31 07:11:00,32.0,31.0,30.26,SE,138,0.0,0.0,95,0.00,,,0.00,,2013-01-31 15:11:00,
2013-01-31 07:21:00,32.0,31.0,30.26,SE,138,0.0,0.0,95,0.00,,,0.00,,2013-01-31 15:21:00,
2013-01-31 07:31:00,32.0,31.0,30.26,SE,138,0.0,1.0,95,0.00,,,0.00,,2013-01-31 15:31:00,
2013-01-31 07:42:00,32.0,31.0,30.26,SE,138,0.0,1.0,95,0.00,,,0.00,,2013-01-31 15:42:00,
2013-01-31 07:52:00,32.0,31.0,30.26,SE,138,0.0,0.0,95,0.00,,,0.00,,2013-01-31 15:52:00,
2013-01-31 08:02:00,32.0,31.0,30.26,SE,138,0.0,1.0,95,0.00,,,0.00,,2013-01-31 16:02:00,
2013-01-31 08:21:00,33.0,32.0,30.26,SE,138,0.0,1.0,95,0.00,,,0.00,,2013-01-31 16:21:00,
2013-01-31 08:32:00,33.0,32.0,30.30,SE,138,0.0,0.0,95,0.00,,,0.00,,2013-01-31 16:32:00,
2013-01-31 08:41:00,33.0,32.0,30.30,SE,138,0.0,0.0,95,0.00,,,0.00,,2013-01-31 16:41:00,
2013-01-31 08:52:00,34.0,33.0,30.27,SE,138,0.0,1.0,95,0.00,,,0.00,,2013-01-31 16:52:00,
2013-01-31 09:01:00,35.0,34.0,30.27,SE,138,0.0,1.0,95,0.00,,,0.00,,2013-01-31 17:01:00,
2013-01-31 09:11:00,35.0,34.0,30.27,SE,138,0.0,1.0,95,0.00,,,0.00,,2013-01-31 17:11:00,
2013-01-31 09:22:00,35.0,34.0,30.30,SE,138,0.0,0.0,95,0.00,,,0.00,,2013-01-31 17:22:00,
2013-01-31 09:31:00,38.0,37.0,30.27,SE,138,0.0,0.0,96,0.00,,,0.00,,2013-01-31 17:31:00,
2013-01-31 09:42:00,38.0,37.0,30.27,SE,138,0.0,0.0,96,0.00,,,0.00,,2013-01-31 17:42:00,
2013-01-31 09:53:00,41.0,40.0,30.27,SE,138,0.0,0.0,96,0.00,,,0.00,,2013-01-31 17:53:00,
2013-01-31 10:02:00,44.0,43.0,30.30,SE,138,0.0,0.0,96,0.00,,,0.00,,2013-01-31 18:02:00,
2013-01-31 10:11:00,49.0,48.0,30.27,SE,138,0.0,0.0,95,0.00,,,0.00,,2013-01-31 18:11:00,
2013-01-31 10:21:00,49.0,48.0,30.27,SE,138,0.0,0.0,95,0.00,,,0.00,,2013-01-31 18:21:00,
2013-01-31 10:31:00,53.0,45.0,30.29,SE,138,0.0,0.0,73,0.00,,,0.00,,2013-01-31 18:31:00,
2013-01-31 10:42:00,53.0,45.0,30.29,SE,138,0.0,0.0,73,0.00,,,0.00,,2013-01-31 18:42:00,
2013-01-31 10:52:00,56.0,41.0,30.26,SSE,164,1.0,3.0,56,0.00,,,0.00,,2013-01-31 18:52:00,
2013-01-31 11:01:00,59.0,41.0,30.25,SSE,164,0.0,2.0,52,0.00,,,0.00,,2013-01-31 19:01:00,
2013-01-31 11:21:00,62.0,43.0,30.25,South,169,0.0,2.0,49,0.00,,,0.00,,2013-01-31 19:21:00,
2013-01-31 11:32:00,64.0,43.0,30.24,SSW,207,0.0,2.0,46,0.00,,,0.00,,2013-01-31 19:32:00,
2013-01-31 11:42:00,64.0,43.0,30.24,SSW,207,0.0,2.0,46,0.00,,,0.00,,2013-01-31 19:42:00,
2013-01-31 11:52:00,64.0,44.0,30.24,SSW,197,1.0,3.0,48,0.00,,,0.00,,2013-01-31 19:52:00,
2013-01-31 12:01:00,64.0,42.0,30.23,SW,228,1.0,3.0,45,0.00,,,0.00,,2013-01-31 20:01:00,
2013-01-31 12:21:00,65.0,43.0,30.23,SSW,196,1.0,4.0,45,0.00,,,0.00,,2013-01-31 20:21:00,
2013-01-31 12:31:00,65.0,43.0,30.22,SSW,210,2.0,4.0,44,0.00,,,0.00,,2013-01-31 20:31:00,
2013-01-31 12:41:00,65.0,44.0,30.22,SW,219,3.0,6.0,47,0.00,,,0.00,,2013-01-31 20:41:00,
2013-01-31 12:51:00,65.0,44.0,30.22,SW,219,3.0,6.0,47,0.00,,,0.00,,2013-01-31 20:51:00,
2013-01-31 13:01:00,65.0,45.0,30.21,WSW,250,2.0,5.0,49,0.00,,,0.00,,2013-01-31 21:01:00,
2013-01-31 13:11:00,66.0,45.0,30.20,SW,228,2.0,6.0,46,0.00,,,0.00,,2013-01-31 21:11:00,
2013-01-31 13:21:00,66.0,45.0,30.20,SW,228,2.0,6.0,46,0.00,,,0.00,,2013-01-31 21:21:00,
2013-01-31 13:31:00,66.0,44.0,30.20,SW,217,1.0,5.0,45,0.00,,,0.00,,2013-01-31 21:31:00,
2013-01-31 13:42:00,66.0,44.0,30.20,SW,217,1.0,5.0,45,0.00,,,0.00,,2013-01-31 21:42:00,
2013-01-31 13:52:00,66.0,44.0,30.19,SW,229,1.0,5.0,45,0.00,,,0.00,,2013-01-31 21:52:00,
2013-01-31 14:02:00,66.0,45.0,30.19,SW,218,3.0,6.0,47,0.00,,,0.00,,2013-01-31 22:02:00,
2013-01-31 14:11:00,66.0,45.0,30.19,SW,228,1.0,4.0,47,0.00,,,0.00,,2013-01-31 22:11:00,
2013-01-31 14:21:00,66.0,45.0,30.19,SW,228,1.0,4.0,47,0.00,,,0.00,,2013-01-31 22:21:00,
2013-01-31 14:32:00,65.0,46.0,30.19,SW,228,2.0,7.0,51,0.00,,,0.00,,2013-01-31 22:32:00,
2013-01-31 14:42:00,65.0,46.0,30.19,SW,228,2.0,7.0,51,0.00,,,0.00,,2013-01-31 22:42:00,
2013-01-31 14:51:00,64.0,45.0,30.18,SW,228,3.0,6.0,50,0.00,,,0.00,,2013-01-31 22:51:00,
2013-01-31 15:01:00,64.0,45.0,30.19,SW,220,4.0,5.0,51,0.00,,,0.00,,2013-01-31 23:01:00,
2013-01-31 15:11:00,64.0,45.0,30.19,SW,220,4.0,5.0,51,0.00,,,0.00,,2013-01-31 23:11:00,
2013-01-31 15:21:00,64.0,47.0,30.18,SW,215,1.0,7.0,53,0.00,,,0.00,,2013-01-31 23:21:00,
2013-01-31 15:31:00,64.0,46.0,30.18,South,189,3.0,6.0,52,0.00,,,0.00,,2013-01-31 23:31:00,
2013-01-31 15:41:00,64.0,46.0,30.18,South,189,3.0,6.0,52,0.00,,,0.00,,2013-01-31 23:41:00,
2013-01-31 15:52:00,62.0,46.0,30.18,SW,218,3.0,5.0,55,0.00,,,0.00,,2013-01-31 23:52:00,
2013-01-31 16:01:00,62.0,46.0,30.18,WSW,246,0.0,6.0,56,0.00,,,0.00,,2013-02-01 00:01:00,
2013-01-31 16:11:00,62.0,46.0,30.18,WSW,246,0.0,6.0,56,0.00,,,0.00,,2013-02-01 00:11:00,
2013-01-31 16:21:00,61.0,46.0,30.18,SSW,211,1.0,5.0,58,0.00,,,0.00,,2013-02-01 00:21:00,
2013-01-31 16:31:00,61.0,46.0,30.18,SSW,209,1.0,4.0,58,0.00,,,0.00,,2013-02-01 00:31:00,
2013-01-31 16:42:00,61.0,46.0,30.18,SSW,209,1.0,4.0,58,0.00,,,0.00,,2013-02-01 00:42:00,
2013-01-31 16:51:00,61.0,46.0,30.18,SW,216,1.0,3.0,58,0.00,,,0.00,,2013-02-01 00:51:00,
2013-01-31 17:01:00,60.0,47.0,30.18,SW,215,0.0,2.0,61,0.00,,,0.00,,2013-02-01 01:01:00,
2013-01-31 17:11:00,59.0,46.0,30.18,SW,215,0.0,1.0,62,0.00,,,0.00,,2013-02-01 01:11:00,
2013-01-31 17:21:00,59.0,46.0,30.18,SW,215,0.0,1.0,62,0.00,,,0.00,,2013-02-01 01:21:00,
2013-01-31 17:31:00,59.0,46.0,30.18,SW,215,0.0,1.0,63,0.00,,,0.00,,2013-02-01 01:31:00,
2013-01-31 17:41:00,59.0,46.0,30.18,SW,215,0.0,1.0,63,0.00,,,0.00,,2013-02-01 01:41:00,
2013-01-31 17:51:00,57.0,45.0,30.18,SW,215,0.0,0.0,65,0.00,,,0.00,,2013-02-01 01:51:00,
2013-01-31 18:01:00,55.0,45.0,30.18,SW,215,0.0,0.0,68,0.00,,,0.00,,2013-02-01 02:01:00,
2013-01-31 18:11:00,55.0,45.0,30.18,SW,215,0.0,0.0,68,0.00,,,0.00,,2013-02-01 02:11:00,
2013-01-31 18:21:00,53.0,44.0,30.19,SW,215,0.0,0.0,71,0.00,,,0.00,,2013-02-01 02:21:00,
2013-01-31 18:31:00,52.0,44.0,30.19,SW,215,0.0,2.0,73,0.00,,,0.00,,2013-02-01 02:31:00,
2013-01-31 18:41:00,52.0,44.0,30.19,SW,215,0.0,2.0,73,0.00,,,0.00,,2013-02-01 02:41:00,
2013-01-31 18:52:00,50.0,43.0,30.19,SW,215,0.0,0.0,76,0.00,,,0.00,,2013-02-01 02:52:00,
2013-01-31 19:01:00,48.0,42.0,30.19,SW,215,0.0,0.0,79,0.00,,,0.00,,2013-02-01 03:01:00,
2013-01-31 19:11:00,48.0,42.0,30.19,SW,215,0.0,0.0,79,0.00,,,0.00,,2013-02-01 03:11:00,
2013-01-31 19:21:00,47.0,41.0,30.18,SW,215,0.0,1.0,81,0.00,,,0.00,,2013-02-01 03:21:00,
2013-01-31 19:32:00,46.0,41.0,30.18,SW,215,0.0,0.0,81,0.00,,,0.00,,2013-02-01 03:32:00,
2013-01-31 19:41:00,46.0,41.0,30.18,SW,215,0.0,0.0,81,0.00,,,0.00,,2013-02-01 03:41:00,
2013-01-31 19:51:00,46.0,41.0,30.18,SW,215,0.0,0.0,82,0.00,,,0.00,,2013-02-01 03:51:00,
2013-01-31 20:01:00,45.0,40.0,30.18,SW,215,0.0,0.0,83,0.00,,,0.00,,2013-02-01 04:01:00,
2013-01-31 20:11:00,44.0,39.0,30.18,SW,215,0.0,0.0,84,0.00,,,0.00,,2013-02-01 04:11:00,
2013-01-31 20:21:00,44.0,39.0,30.18,SW,215,0.0,0.0,84,0.00,,,0.00,,2013-02-01 04:21:00,
2013-01-31 20:31:00,43.0,39.0,30.20,SW,215,0.0,1.0,85,0.00,,,0.00,,2013-02-01 04:31:00,
2013-01-31 20:41:00,43.0,39.0,30.20,SW,215,0.0,1.0,85,0.00,,,0.00,,2013-02-01 04:41:00,
2013-01-31 20:52:00,42.0,38.0,30.21,SW,215,0.0,0.0,87,0.00,,,0.00,,2013-02-01 04:52:00,
2013-01-31 21:02:00,42.0,39.0,30.19,SW,215,0.0,0.0,88,0.00,,,0.00,,2013-02-01 05:02:00,
2013-01-31 21:22:00,41.0,38.0,30.19,SW,215,0.0,0.0,88,0.00,,,0.00,,2013-02-01 05:22:00,
2013-01-31 21:31:00,41.0,38.0,30.18,SW,215,0.0,0.0,89,0.00,,,0.00,,2013-02-01 05:31:00,
2013-01-31 21:41:00,41.0,38.0,30.18,SW,215,0.0,0.0,89,0.00,,,0.00,,2013-02-01 05:41:00,
2013-01-31 21:51:00,41.0,38.0,30.19,SW,215,0.0,0.0,90,0.00,,,0.00,,2013-02-01 05:51:00,
2013-01-31 22:01:00,40.0,37.0,30.19,SW,215,0.0,0.0,90,0.00,,,0.00,,2013-02-01 06:01:00,
2013-01-31 22:21:00,39.0,36.0,30.21,SW,215,0.0,0.0,90,0.00,,,0.00,,2013-02-01 06:21:00,
2013-01-31 22:31:00,39.0,37.0,30.18,SW,215,0.0,0.0,91,0.00,,,0.00,,2013-02-01 06:31:00,
2013-01-31 22:41:00,39.0,37.0,30.18,SW,215,0.0,0.0,91,0.00,,,0.00,,2013-02-01 06:41:00,
2013-01-31 22:52:00,39.0,37.0,30.18,SW,215,0.0,0.0,91,0.00,,,0.00,,2013-02-01 06:52:00,
2013-01-31 23:01:00,39.0,37.0,30.18,SW,215,0.0,0.0,91,0.00,,,0.00,,2013-02-01 07:01:00,
2013-01-31 23:11:00,38.0,36.0,30.18,SW,215,0.0,0.0,91,0.00,,,0.00,,2013-02-01 07:11:00,
2013-01-31 23:21:00,38.0,36.0,30.18,SW,215,0.0,0.0,91,0.00,,,0.00,,2013-02-01 07:21:00,
2013-01-31 23:31:00,38.0,36.0,30.18,SW,215,0.0,0.0,92,0.00,,,0.00,,2013-02-01 07:31:00,
2013-01-31 23:41:00,38.0,36.0,30.18,SW,215,0.0,0.0,92,0.00,,,0.00,,2013-02-01 07:41:00,
2013-01-31 23:52:00,38.0,36.0,30.18,SW,215,0.0,0.0,92,0.00,,,0.00,,2013-02-01 07:52:00,